Location: Unspecified
(43.4680°N, 87.1740°E)
Time: 19:30:54
(UTC+00:00)

Cosmos 2227 Rocket - Pass Details

Date: 17 January 2020
Orbit: 840 x 844 km, 71.0° (Epoch: 27 February)

Event Time Altitude Azimuth Distance (km) Brightness Sun altitude
Rises 12:45:43 0° 177° (S) 3,382 5.4 -18.4°
Reaches altitude 10° 12:48:20 10° 168° (SSE) 2,451 4.6 -18.9°
Maximum altitude 12:53:21 34° 105° (ESE) 1,349 2.8 -19.8°
Enters shadow 12:53:25 34° 103° (ESE) 1,349 2.8 -19.8°
